Location: Breungeshain
(50.5000°N, 9.2000°E)
Time: 05:20:11
(UTC+00:00)

ISS - Pass Details

Date: 20 May 2017
Orbit: 402 x 406 km, 51.6° (Epoch: 18 December)

Event Time Altitude Azimuth Distance (km) Brightness Sun altitude
Exits shadow 23:25:58 70° 119° (ESE) 449 -3.8 -19.3°
Drops below altitude 10° 23:29:05 10° 76° (ENE) 1,498 -0.8 -19.3°
Sets 23:31:11 0° 75° (ENE) 2,359 0.3 -19.3°
